Snowfall_Accumulation
0.0 0.0 0.0 0.0 0.0 0.0 0.0 0.0 0.0 0.0 0.0 0.0 0.0 0.0 0.0 0.0 0.0 0.0 0.0 nan nan nan nan nan nan nan nan nan nan nan nan nan nan nan nan nan nan nan
0.0 0.0 0.0 0.0 0.0 0.0 0.0 0.0 0.0 0.0 0.0 0.0 0.0 0.0 0.0 0.0 0.0 0.0 0.0 nan nan nan nan nan nan nan nan nan nan nan nan nan nan nan nan nan nan nan
0.0 0.0 0.0 0.0 0.0 0.0 0.0 0.0 0.0 0.0 0.0 0.0 0.0 0.0 0.0 0.0 0.0 0.0 0.0 0.0 0.0 nan nan nan nan nan nan nan nan nan nan nan nan nan nan nan nan nan
0.0 0.0 0.0 0.0 0.0 0.0 0.0 0.0 0.0 0.0 0.0 0.0 0.0 0.0 0.0 0.0 0.0 0.0 0.0 0.0 0.0 nan nan nan nan nan nan nan nan nan nan nan nan nan nan nan nan nan
0.0 0.0 0.0 0.0 0.0 0.0 0.0 0.0 0.0 0.0 0.0 0.0 0.0 0.0 0.0 0.0 0.0 0.0 0.0 0.0 0.0 nan nan nan nan nan nan nan nan nan nan nan nan nan nan nan nan nan
0.0 0.0 0.0 0.0 0.0 0.0 0.0 0.0 0.0 0.0 0.0 0.0 0.0 0.0 0.0 0.0 0.0 0.0 0.0 0.0 0.0 0.0 nan nan nan nan nan nan nan nan nan nan nan nan nan nan nan nan
0.0 0.0 0.0 nan nan nan 0.0 0.0 0.0 0.0 0.0 0.0 0.0 0.0 0.0 0.0 0.0 0.0 0.0 0.0 0.1 0.0 0.0 0.0 0.0 0.0 0.0 nan nan nan nan nan nan nan nan nan nan nan
0.0 0.0 0.0 0.0 0.0 nan nan nan nan 0.0 0.1 0.2 0.1 0.1 0.0 0.0 0.0 0.0 0.1 0.4 1.1 0.4 0.3 0.7 0.1 0.1 0.0 0.0 nan nan nan nan nan nan nan nan nan nan
0.0 0.0 0.0 0.0 nan 0.0 nan nan nan nan 0.0 0.1 0.4 0.1 0.0 0.0 0.0 0.1 0.1 0.2 0.2 0.2 0.4 1.4 1.0 0.8 0.3 0.0 nan nan nan nan nan nan nan nan nan nan
0.1 0.0 0.1 0.1 0.0 0.0 0.1 0.2 0.1 0.0 0.0 0.0 0.0 0.0 0.0 0.0 0.0 0.0 0.0 0.1 0.4 0.3 0.2 3.4 1.8 2.2 1.3 0.5 nan nan nan nan nan nan nan nan nan nan
0.1 0.1 0.1 0.3 nan nan 0.7 1.9 0.6 0.1 nan nan nan nan nan nan nan 0.6 2.4 2.5 6.0 1.7 1.2 1.3 2.3 2.3 1.6 1.8 1.2 nan nan nan nan nan nan nan nan nan
0.5 0.2 nan 0.2 nan nan 1.3 1.8 2.2 0.6 0.2 0.2 0.1 0.0 nan nan nan 0.3 1.0 2.2 2.4 2.9 1.3 2.4 0.8 1.3 3.7 3.0 1.7 1.8 1.3 nan nan nan nan nan nan 0.4
1.5 1.3 1.0 nan nan nan nan 1.7 1.1 0.2 0.2 0.7 0.5 0.7 0.5 0.2 0.5 0.3 0.2 1.3 2.1 1.2 0.3 0.4 1.1 1.2 1.4 2.9 2.5 2.2 1.6 2.6 1.9 1.3 nan nan nan 0.5
2.3 1.6 1.2 nan nan nan 1.6 nan nan 0.9 4.5 3.9 2.9 1.9 1.8 1.4 0.5 0.4 0.2 0.4 0.5 0.3 0.1 0.2 2.6 1.1 1.9 3.2 3.0 3.1 3.2 3.6 2.5 3.7 3.3 nan nan nan
3.2 2.6 nan nan nan 1.3 nan nan 0.8 4.2 4.5 5.5 3.1 1.7 1.1 0.8 0.5 1.0 0.9 0.8 1.0 1.4 0.5 1.0 1.5 0.7 1.6 2.7 3.1 4.2 4.6 4.7 4.1 5.7 5.2 3.7 3.1 2.5
1.0 2.7 0.7 2.2 0.9 1.3 2.7 4.1 5.0 5.4 5.2 4.1 2.8 1.5 1.5 2.4 2.7 1.4 2.9 3.3 4.5 3.7 2.7 1.6 1.2 1.1 3.4 2.1 1.2 4.0 3.4 5.9 4.1 5.1 5.9 6.0 4.0 3.3
3.6 7.2 3.9 2.9 2.9 2.7 3.5 3.1 2.8 3.0 4.4 4.5 3.9 2.9 2.5 2.2 2.8 3.2 3.0 3.1 5.5 4.0 2.6 2.6 2.1 2.0 1.8 1.6 5.4 2.0 2.9 3.1 3.2 5.3 6.2 5.4 4.6 4.4
3.7 5.6 11.1 12.0 6.9 3.4 5.0 4.5 3.9 3.2 3.1 3.6 5.2 3.6 3.5 3.9 4.3 5.2 4.5 4.7 5.6 4.4 3.3 2.3 2.7 4.3 4.0 4.6 1.8 2.0 1.7 2.3 2.9 4.7 4.9 6.2 3.9 3.9
5.9 6.1 13.8 15.8 9.0 3.5 3.9 3.7 5.0 4.7 2.4 3.6 4.7 5.8 5.8 4.8 6.5 6.2 6.8 6.4 6.5 4.0 3.4 4.7 4.6 3.9 4.7 7.9 3.1 nan 3.7 2.8 7.2 8.7 5.6 5.3 4.8 3.9
3.2 5.7 8.9 9.8 4.9 2.9 3.4 4.1 4.5 6.6 7.0 5.3 7.5 10.1 11.6 8.3 7.3 5.5 5.4 8.2 6.3 4.3 2.8 2.4 3.2 3.8 4.2 8.7 15.2 12.8 nan 9.8 9.1 9.6 6.5 5.6 4.3 nan
3.5 3.1 6.1 5.0 5.2 4.0 12.3 13.0 16.6 15.3 15.2 18.7 11.0 10.6 21.1 6.3 7.9 5.9 6.7 5.9 5.2 3.4 3.7 3.7 3.9 1.0 3.9 10.1 29.0 16.0 14.8 nan 7.1 6.5 5.4 6.5 4.1 2.8
6.9 4.3 4.5 4.8 7.5 7.0 15.5 22.6 20.9 20.7 15.2 11.1 20.1 27.5 25.2 12.5 10.7 9.3 11.7 10.2 5.3 5.8 4.1 3.5 2.7 1.8 5.7 4.1 5.4 20.0 10.2 10.7 nan nan nan nan 5.6 5.1
13.8 5.6 8.0 9.7 8.6 10.5 5.7 12.8 5.7 26.6 11.4 11.3 11.0 11.5 43.7 15.0 9.2 9.7 10.6 7.9 5.7 6.2 4.7 4.7 3.1 2.3 3.3 3.2 5.3 8.5 7.8 12.9 6.0 4.6 11.0 nan nan nan
Water_Equivalent
0.00 0.00 0.00 0.00 0.00 0.00 0.00 0.00 0.00 0.00 0.00 0.00 0.00 0.00 0.00 0.00 0.00 0.00 0.00 nan nan nan nan nan nan nan nan nan nan nan nan nan nan nan nan nan nan nan
0.00 0.00 0.00 0.00 0.00 0.00 0.00 0.00 0.00 0.00 0.00 0.00 0.00 0.00 0.00 0.00 0.00 0.00 0.00 nan nan nan nan nan nan nan nan nan nan nan nan nan nan nan nan nan nan nan
0.00 0.00 0.00 0.00 0.00 0.00 0.00 0.00 0.00 0.00 0.00 0.00 0.00 0.00 0.00 0.00 0.00 0.00 0.00 0.00 0.00 nan nan nan nan nan nan nan nan nan nan nan nan nan nan nan nan nan
0.00 0.00 0.00 0.00 0.00 0.00 0.00 0.00 0.00 0.00 0.00 0.00 0.00 0.00 0.00 0.00 0.00 0.00 0.00 0.00 0.00 nan nan nan nan nan nan nan nan nan nan nan nan nan nan nan nan nan
0.00 0.00 0.00 0.00 0.00 0.00 0.00 0.00 0.00 0.00 0.00 0.00 0.00 0.00 0.00 0.00 0.00 0.00 0.00 0.00 0.00 nan nan nan nan nan nan nan nan nan nan nan nan nan nan nan nan nan
0.00 0.00 0.00 0.00 0.00 0.00 0.00 0.00 0.00 0.00 0.00 0.00 0.00 0.00 0.00 0.00 0.00 0.00 0.00 0.00 0.00 0.00 nan nan nan nan nan nan nan nan nan nan nan nan nan nan nan nan
0.00 0.00 0.00 nan nan nan 0.00 0.00 0.00 0.00 0.00 0.01 0.00 0.00 0.00 0.00 0.00 0.00 0.00 0.01 0.04 0.00 0.00 0.00 0.00 0.00 0.00 nan nan nan nan nan nan nan nan nan nan nan
0.01 0.00 0.00 0.00 0.00 nan nan nan nan 0.01 0.02 0.03 0.01 0.01 0.00 0.00 0.00 0.00 0.02 0.10 0.23 0.11 0.08 0.17 0.02 0.03 0.00 0.00 nan nan nan nan nan nan nan nan nan nan
0.01 0.01 0.00 0.00 nan 0.00 nan nan nan nan 0.00 0.01 0.05 0.01 0.01 0.00 0.00 0.02 0.02 0.03 0.03 0.05 0.11 0.29 0.24 0.20 0.08 0.00 nan nan nan nan nan nan nan nan nan nan
0.02 0.01 0.01 0.02 0.01 0.01 0.02 0.04 0.02 0.00 0.00 0.00 0.00 0.00 0.00 0.00 0.00 0.00 0.01 0.02 0.10 0.06 0.06 0.58 0.43 0.47 0.29 0.11 nan nan nan nan nan nan nan nan nan nan
0.02 0.03 0.03 0.05 nan nan 0.12 0.28 0.10 0.03 nan nan nan nan nan nan nan 0.13 0.46 0.43 0.92 0.37 0.27 0.25 0.47 0.49 0.40 0.52 0.47 nan nan nan nan nan nan nan nan nan
0.11 0.05 nan 0.04 nan nan 0.21 0.27 0.32 0.09 0.04 0.05 0.03 0.01 nan nan nan 0.05 0.16 0.37 0.39 0.40 0.26 0.37 0.13 0.20 0.54 0.59 0.42 0.52 0.46 nan nan nan nan nan nan 0.11
0.28 0.25 0.23 nan nan nan nan 0.27 0.17 0.03 0.04 0.11 0.10 0.15 0.10 0.05 0.12 0.09 0.06 0.24 0.35 0.20 0.07 0.07 0.17 0.18 0.20 0.38 0.47 0.45 0.36 0.66 0.59 0.44 nan nan nan 0.12
0.37 0.30 0.23 nan nan nan 0.36 nan nan 0.20 0.83 0.67 0.49 0.33 0.31 0.26 0.10 0.09 0.03 0.10 0.11 0.06 0.02 0.04 0.34 0.15 0.23 0.40 0.36 0.49 0.53 0.63 0.50 0.78 0.89 nan nan nan
0.55 0.45 nan nan nan 0.45 nan nan 0.26 0.68 0.76 0.88 0.52 0.29 0.20 0.15 0.09 0.18 0.16 0.15 0.19 0.27 0.11 0.19 0.25 0.11 0.25 0.33 0.37 0.53 0.61 0.72 0.66 0.89 0.84 0.65 0.58 0.56
0.26 0.45 0.22 0.43 0.28 0.32 0.52 0.69 0.82 0.86 0.79 0.63 0.43 0.23 0.24 0.40 0.43 0.25 0.44 0.47 0.59 0.48 0.53 0.33 0.22 0.19 0.49 0.28 0.16 0.48 0.45 0.72 0.59 0.73 0.81 0.86 0.62 0.55
0.64 1.04 0.59 0.43 0.43 0.40 0.52 0.48 0.45 0.48 0.66 0.68 0.59 0.45 0.40 0.33 0.43 0.53 0.46 0.42 0.68 0.49 0.34 0.40 0.38 0.37 0.31 0.22 0.66 0.26 0.37 0.39 0.44 0.67 0.79 0.70 0.63 0.63
0.52 0.74 1.37 1.51 0.88 0.46 0.69 0.65 0.57 0.52 0.47 0.54 0.81 0.56 0.54 0.63 0.62 0.72 0.63 0.59 0.65 0.53 0.42 0.30 0.37 0.59 0.56 0.63 0.29 0.25 0.23 0.30 0.38 0.59 0.64 0.76 0.48 0.55
0.78 0.76 1.48 1.75 1.10 0.46 0.51 0.50 0.67 0.69 0.33 0.54 0.70 0.85 0.85 0.68 0.93 0.84 0.92 0.83 0.78 0.47 0.43 0.64 0.62 0.53 0.50 0.81 0.38 nan 0.46 0.37 0.84 1.00 0.72 0.67 0.61 0.52
0.43 0.71 1.05 1.14 0.61 0.38 0.43 0.48 0.57 0.88 0.90 0.73 1.05 1.38 1.52 1.05 0.97 0.71 0.71 0.95 0.75 0.50 0.33 0.31 0.45 0.54 0.54 0.96 1.73 1.43 nan 1.16 1.02 1.06 0.73 0.71 0.58 nan
0.44 0.39 0.77 0.61 0.62 0.50 1.40 1.50 1.84 1.70 1.76 2.22 1.38 1.32 2.88 0.83 0.98 0.76 0.82 0.91 0.86 0.40 0.42 0.43 0.45 0.34 0.47 1.14 3.30 1.70 1.57 nan 0.94 0.81 0.66 0.74 0.46 0.33
0.85 0.52 0.57 0.62 0.89 0.79 1.69 2.57 2.36 2.34 1.69 1.26 2.28 3.35 3.11 1.42 1.16 0.99 1.27 1.12 0.60 0.65 0.43 0.38 0.31 0.23 0.69 0.46 0.55 2.16 1.01 1.08 nan nan nan nan 0.67 0.59
1.48 0.66 0.99 1.15 1.08 1.29 0.72 1.42 0.67 3.08 1.24 1.24 1.20 1.27 5.43 1.61 0.97 1.03 1.15 0.85 0.62 0.66 0.52 0.50 0.35 0.27 0.38 0.32 0.57 0.85 0.76 1.36 0.66 0.50 1.17 nan nan nan
SL_Ratio
nan nan nan nan nan nan nan nan nan nan nan nan nan nan nan nan nan nan nan nan nan nan nan nan nan nan nan nan nan nan nan nan nan nan nan nan nan nan
nan nan nan nan nan nan nan nan nan nan nan nan nan nan nan nan nan nan nan nan nan nan nan nan nan nan nan nan nan nan nan nan nan nan nan nan nan nan
nan nan nan nan nan nan nan nan nan nan nan nan nan nan nan nan nan nan nan nan nan nan nan nan nan nan nan nan nan nan nan nan nan nan nan nan nan nan
nan nan nan nan nan nan nan nan nan nan nan nan nan nan nan nan nan nan nan nan nan nan nan nan nan nan nan nan nan nan nan nan nan nan nan nan nan nan
nan nan nan nan nan nan nan nan nan nan nan nan nan nan nan nan nan nan nan nan nan nan nan nan nan nan nan nan nan nan nan nan nan nan nan nan nan nan
nan nan nan nan nan nan nan nan nan nan nan nan nan nan nan nan nan nan 3.8 nan nan nan nan nan nan nan nan nan nan nan nan nan nan nan nan nan nan nan
nan nan nan nan nan nan nan nan nan 5.0 7.0 7.0 6.9 4.0 nan 10.0 6.7 nan nan 3.2 3.4 5.0 0.0 2.5 nan nan nan nan nan nan nan nan nan nan nan nan nan nan
3.1 nan nan nan nan nan nan nan nan 6.5 7.1 7.3 6.8 6.9 5.0 nan nan 5.0 4.5 4.3 4.8 3.6 3.7 4.3 3.3 3.7 nan nan nan nan nan nan nan nan nan nan nan nan
3.4 2.9 3.3 nan nan nan nan nan nan nan nan 6.6 7.5 7.0 7.0 nan nan 5.0 4.7 5.9 5.7 3.8 3.7 4.7 4.3 4.2 4.3 5.0 nan nan nan nan nan nan nan nan nan nan
3.4 3.3 3.7 3.7 3.3 3.8 4.5 5.2 4.5 4.3 nan nan 6.7 7.1 nan nan nan nan 4.1 4.5 3.6 4.0 3.9 5.8 4.2 4.8 4.6 4.6 nan nan nan nan nan nan nan nan nan nan
3.7 3.7 4.4 5.2 nan nan 5.7 6.5 6.1 4.8 nan nan nan nan nan nan nan 4.3 5.2 5.8 6.5 4.6 4.3 4.9 4.8 4.7 4.0 3.4 2.6 nan nan nan nan nan nan nan nan nan
5.0 4.4 nan 4.3 nan nan 6.2 6.6 7.1 6.4 5.1 4.4 3.9 3.4 nan nan nan 5.9 5.9 6.0 6.0 7.3 5.2 6.6 6.0 6.5 6.8 5.1 4.1 3.4 2.9 nan nan nan nan nan nan 3.9
5.5 5.2 4.6 nan nan nan nan 6.5 6.7 5.5 5.9 5.7 5.4 4.9 4.5 4.4 3.8 3.5 4.4 5.4 5.9 6.0 4.5 5.9 6.7 6.6 7.0 7.7 5.3 4.9 4.6 4.0 3.2 2.9 nan nan nan 4.0
6.3 5.5 5.2 nan nan nan 4.5 nan nan 4.5 5.5 5.8 5.8 5.8 5.8 5.4 4.7 4.5 4.7 4.3 4.2 5.1 4.5 5.4 7.6 7.1 8.0 7.8 8.3 6.4 5.9 5.7 4.9 4.8 3.7 nan nan nan
5.9 5.7 nan nan nan 3.0 nan nan 3.0 6.1 6.0 6.3 6.1 6.0 5.8 5.2 5.6 5.9 5.9 5.4 5.2 5.1 4.3 5.4 6.0 6.4 6.4 8.1 8.4 7.9 7.6 6.5 6.2 6.5 6.2 5.6 5.4 4.4
4.0 6.0 3.0 5.1 3.0 4.3 5.2 5.9 6.0 6.3 6.5 6.5 6.6 6.3 6.1 6.1 6.3 5.8 6.6 7.0 7.6 7.7 5.0 4.7 5.4 6.0 7.1 7.3 7.5 8.4 7.6 8.3 6.9 7.0 7.3 6.9 6.6 6.1
5.7 6.9 6.6 6.7 6.9 6.8 6.7 6.5 6.3 6.3 6.7 6.7 6.5 6.4 6.4 6.5 6.4 6.0 6.5 7.4 8.1 8.1 7.6 6.4 5.5 5.5 6.0 7.3 8.3 7.5 7.9 7.9 7.3 7.8 7.8 7.8 7.3 7.0
7.0 7.6 8.1 8.0 7.8 7.4 7.2 7.0 6.8 6.2 6.6 6.6 6.4 6.4 6.4 6.2 7.0 7.2 7.1 7.9 8.7 8.3 8.0 7.6 7.1 7.3 7.1 7.3 6.3 7.8 7.5 7.6 7.7 8.0 7.6 8.2 8.0 7.2
7.5 7.9 9.3 9.0 8.1 7.6 7.7 7.4 7.6 6.8 7.3 6.7 6.7 6.8 6.9 7.0 7.0 7.3 7.4 7.7 8.4 8.4 7.9 7.5 7.4 7.4 9.3 9.7 8.1 nan 8.0 7.7 8.6 8.7 7.8 7.9 7.8 7.6
7.5 8.0 8.5 8.6 8.1 7.8 7.9 8.5 7.9 7.5 7.8 7.3 7.2 7.3 7.6 7.9 7.5 7.8 7.5 8.6 8.4 8.5 8.3 7.7 7.3 7.1 7.8 9.0 8.8 8.9 nan 8.5 8.9 9.0 8.9 7.9 7.3 nan
8.0 7.8 7.9 8.2 8.3 8.1 8.8 8.7 9.0 9.0 8.6 8.4 7.9 8.0 7.3 7.6 8.0 7.9 8.1 6.5 6.1 8.5 8.9 8.6 8.7 3.0 8.4 8.8 8.8 9.4 9.4 nan 7.6 8.0 8.1 8.8 8.9 8.6
8.2 8.3 7.9 7.8 8.4 8.8 9.2 8.8 8.9 8.8 9.0 8.8 8.8 8.2 8.1 8.8 9.3 9.3 9.2 9.1 8.9 8.9 9.5 9.2 8.6 8.0 8.2 8.9 9.8 9.2 10.2 9.9 nan nan nan nan 8.3 8.7
9.3 8.4 8.1 8.4 8.0 8.2 7.9 9.0 8.4 8.6 9.2 9.1 9.2 9.1 8.0 9.3 9.5 9.4 9.3 9.3 9.3 9.4 9.1 9.3 9.1 8.7 8.9 9.7 9.4 10.0 10.2 9.5 9.1 9.3 9.4 nan nan nan